Weather History for KHHR - February, 2014

Change the Weather History Date:

Wednesday, February 26, 2014

  Actual Average Record
Temperature  
Mean Temperature 60 °F -  
Max Temperature 64 °F 65 °F 84 °F (2002)
Min Temperature 57 °F 50 °F 38 °F (1964)
Degree Days  
Heating Degree Days 4    
Growing Degree Days 10 (Base 50)    
Moisture  
Dew Point 49 °F    
Average Humidity 66    
Maximum Humidity 77    
Minimum Humidity 47    
Precipitation  
Precipitation 0.01 in - - ()
Sea Level Pressure  
Sea Level Pressure 30.05 in    
Wind  
Wind Speed 3 mph (SSW)    
Max Wind Speed 9 mph    
Max Gust Speed 16 mph    
Visibility 10 miles    
Events Rain    
Averages and records for this station are not official NWS values.
T = Trace of Precipitation, MM = Missing Value Source: NWS Daily Summary

Daily Weather History Graph

Daily Weather History Graph

Search for Another Location

Airport or City:

Trip Planner

Search our weather history database for the weather conditions in past years. The results will help you decide how hot, cold, wet, or windy it might be!

Date:

Astronomy

Feb. 26, 2014 Rise Set
Actual Time 6:25 AM PST 5:47 PM PST
Civil Twilight 6:00 AM PST 6:12 PM PST
Nautical Twilight 5:31 AM PST 6:41 PM PST
Astronomical Twilight 5:02 AM PST 7:10 PM PST
Moon 4:09 AM PST (2/26) 3:12 PM PST (2/26)
Length of Visible Light 12h 12m
Length of Day
11h 21m
Waning Crescent, 9% of the Moon is Illuminated
Feb 26
Waning Crescent
Mar 1
New
Mar 8
First Quarter
Mar 16
Full
Mar 23
Last Quarter

Hourly Weather History & Observations

Time (PST) Temp. Dew Point Humidity Pressure Visibility Wind Dir Wind Speed Gust Speed Precip Events Conditions
12:45 AM 59.0 °F 48.2 °F 67% 30.05 in 10.0 mi Calm Calm - N/A   Overcast
12:53 AM 59.0 °F 48.9 °F 69% 30.06 in 10.0 mi Calm Calm - N/A   Overcast
1:22 AM 59.0 °F 50.0 °F 72% 30.06 in 10.0 mi SW 3.5 mph - N/A   Overcast
1:53 AM 59.0 °F 50.0 °F 72% 30.05 in 10.0 mi Calm Calm - N/A   Overcast
2:53 AM 59.0 °F 50.0 °F 72% 30.04 in 10.0 mi Calm Calm - N/A   Overcast
3:28 AM 57.2 °F 50.0 °F 77% 30.04 in 10.0 mi West 4.6 mph - N/A   Overcast
3:51 AM 57.2 °F 50.0 °F 77% 30.04 in 10.0 mi WSW 5.8 mph - N/A   Overcast
3:53 AM 59.0 °F 50.0 °F 72% 30.04 in 10.0 mi WSW 4.6 mph - N/A   Overcast
4:53 AM 57.9 °F 50.0 °F 75% 30.05 in 10.0 mi West 4.6 mph - N/A   Overcast
5:53 AM 57.9 °F 50.0 °F 75% 30.06 in 10.0 mi Calm Calm - N/A   Overcast
6:12 AM 57.2 °F 50.0 °F 77% 30.07 in 10.0 mi WSW 4.6 mph - N/A   Overcast
6:53 AM 57.9 °F 50.0 °F 75% 30.07 in 10.0 mi Calm Calm - N/A   Overcast
7:53 AM 59.0 °F 50.0 °F 72% 30.07 in 10.0 mi Variable 3.5 mph - N/A   Overcast
8:53 AM 60.1 °F 48.0 °F 64% 30.09 in 10.0 mi ESE 4.6 mph - N/A   Mostly Cloudy
9:53 AM 63.0 °F 46.0 °F 54% 30.07 in 10.0 mi ESE 8.1 mph 16.1 mph N/A   Mostly Cloudy
10:53 AM 63.0 °F 45.0 °F 52% 30.10 in 10.0 mi Variable 5.8 mph - N/A   Overcast
11:53 AM 63.0 °F 46.0 °F 54% 30.06 in 10.0 mi East 5.8 mph - N/A   Overcast
12:53 PM 64.9 °F 44.1 °F 47% 30.05 in 10.0 mi WNW 3.5 mph - N/A   Overcast
1:53 PM 64.9 °F 46.0 °F 50% 30.02 in 10.0 mi Variable 3.5 mph - N/A   Mostly Cloudy
2:53 PM 64.0 °F 46.9 °F 54% 30.03 in 10.0 mi WSW 9.2 mph - N/A   Unknown
3:53 PM 63.0 °F 50.0 °F 63% 30.04 in 10.0 mi WSW 8.1 mph - N/A   Overcast
4:53 PM 63.0 °F 50.0 °F 63% 30.01 in 10.0 mi Variable 3.5 mph - N/A   Partly Cloudy
5:53 PM 62.1 °F 50.0 °F 65% 30.02 in 10.0 mi West 4.6 mph - N/A   Overcast
6:53 PM 62.1 °F 50.0 °F 65% 30.03 in 10.0 mi Calm Calm - N/A   Overcast
7:53 PM 62.1 °F 48.9 °F 62% 30.04 in 10.0 mi SSE 6.9 mph - 0.00 in Rain Light Rain
8:53 PM 62.1 °F 50.0 °F 65% 30.04 in 10.0 mi ESE 4.6 mph - 0.00 in   Overcast
9:53 PM 62.1 °F 51.1 °F 67% 30.02 in 10.0 mi East 8.1 mph - N/A   Overcast
10:53 PM 62.1 °F 51.1 °F 67% 30.02 in 10.0 mi East 6.9 mph - N/A   Overcast
11:53 PM 61.0 °F 52.0 °F 72% 30.01 in 10.0 mi East 8.1 mph - 0.01 in Rain Rain